#timestamp,LO_Frequency,Hit,StdDev 
1571724015.3,286046997.3,N
1571724035.1,286046997.5,N
1571724036.0,286046997.5,N
1571724055.8,286046995.0,Y
1571724075.7,286046996.5,P
1571724095.5,286046997.7,P
1571724115.3,286046998.8,N
1571724135.2,286046998.2,N
1571724155.9,286046999.3,N
1571724175.7,286046999.6,N
1571724195.6,286046996.8,Y
1571724215.4,286046999.0,P
1571724235.2,286046998.2,P
1571724255.1,286046998.9,P
1571724256.0,286046998.9,Y
1571724275.8,286047001.2,P
1571724295.6,286046999.8,N
1571724315.5,286047001.6,N
1571724335.3,286047001.8,N
1571724355.1,286047002.2,N
1571724375.9,286046998.5,N
1571724395.7,286047000.5,N
1571724415.5,286046998.1,N
1571724435.4,286047000.1,N
1571724455.2,286047002.6,N
1571724475.0,286046998.1,N
1571724475.9,286046998.1,N
1571724495.8,286047001.1,N
1571724515.6,286046998.7,N
1571724535.4,286047001.0,N
1571724555.3,286047001.2,N
1571724575.1,286047002.8,N
1571724606.0,286047001.5,E
1571724615.0,286047002.3,N
1571724646.0,286047000.1,E
1571724655.9,286046999.7,N
1571724675.7,286047000.0,P
1571724695.6,286046998.5,P
1571724715.4,286047000.8,N
1571724735.2,286047000.5,N
1571724755.1,286047000.2,N
1571724756.0,286047000.2,N
1571724775.8,286046998.5,N
1571724795.6,286046998.6,N
1571724815.5,286046998.5,N
1571724835.3,286047000.9,N
1571724855.1,286046999.9,N
1571724875.8,286046999.8,N
1571724895.7,286047000.0,N
1571724915.5,286046999.8,N
1571724935.3,286047000.1,N
1571724955.2,286047002.3,N
1571724975.0,286047000.1,N
1571724975.9,286047000.1,N
1571724995.7,286046999.8,N
1571725015.6,286047001.0,N
1571725035.4,286047001.0,N
1571725055.2,286047000.6,N
1571725075.1,286046998.1,N
1571725076.0,286046998.1,N
1571725095.8,286046998.8,N
1571725115.6,286046998.1,N
1571725135.5,286047001.6,N
1571725155.3,286047004.4,Y
1571725175.1,286047004.2,P
1571725195.9,286047001.3,N
1571725215.7,286047003.8,N
1571725235.5,286047003.7,N
1571725255.4,286047004.0,N
1571725275.2,286047004.2,N
1571725295.0,286047003.9,N
1571725295.9,286047003.9,N
1571725315.8,286047005.8,Y
1571725335.6,286047002.1,P
1571725355.4,286047002.3,P
1571725375.3,286047001.7,P
1571725395.1,286047001.0,N
1571725415.8,286047001.1,N
1571725435.7,286047000.0,N
1571725455.5,286047000.0,N
1571725475.3,286047000.1,N
1571725495.2,286047000.0,N
1571725515.9,286046999.7,N
1571725535.7,286047002.1,N
1571725555.6,286047002.2,N
1571725575.4,286047001.6,N
1571725595.2,286047001.6,N
1571725615.1,286047001.8,N
1571725616.0,286047001.8,N
1571725635.8,286047001.7,N
1571725655.6,286047004.1,Y
1571725705.5,286047003.9,E
1571725715.4,286047002.1,N
1571725735.2,286047000.9,P
1571725755.1,286046999.7,N
1571725756.0,286046999.7,N
1571725775.8,286047002.4,N
1571725795.6,286047000.2,N
1571725815.5,286047002.0,N
1571725835.3,286047001.7,N
1571725855.1,286047001.7,N
1571725875.9,286047004.0,Y
1571725895.7,286047001.9,P
1571725915.5,286047001.9,P
1571725935.4,286047000.9,N
1571725955.2,286047002.4,Y
1571725975.0,286046998.6,P
1571725975.9,286046998.6,N
1571725995.8,286046998.7,N
1571726015.6,286047000.8,N
1571726035.4,286047000.6,N
1571726055.3,286047000.9,N
1571726075.1,286046996.9,N
1571726095.8,286046997.1,N
1571726115.7,286046996.9,N
1571726135.5,286046995.4,N
1571726155.3,286046995.9,N
1571726175.2,286046993.8,Y
1571726195.0,286046996.3,P
1571726195.9,286046996.3,P
1571726215.7,286046992.4,P
1571726235.6,286046990.6,Y
1571726255.4,286046995.4,P
1571726275.2,286046995.2,P
1571726295.1,286046995.8,P
1571726296.0,286046995.8,Y
1571726315.8,286047000.4,P
1571726335.7,286046998.5,N
1571726355.5,286047001.0,N
1571726375.3,286046998.5,N
1571726395.1,286046998.5,N
1571726415.9,286047002.4,N
1571726435.7,286046999.8,N
1571726485.6,286047002.7,E
1571726495.5,286046998.9,N
1571726515.3,286046998.0,P
1571726535.1,286046997.2,P
1571726555.9,286046999.1,N
1571726575.7,286046997.1,Y
1571726595.5,286046998.4,P
1571726615.4,286046998.6,P
1571726635.2,286046998.4,P
1571726655.0,286046998.8,Y
1571726656.0,286046998.8,P
1571726675.8,286046998.5,P
1571726695.6,286046996.8,P
1571726715.5,286046996.8,Y
1571726735.3,286046998.4,P
1571726755.1,286046998.6,P
1571726775.9,286046998.6,P
1571726795.7,286046998.8,Y
1571726815.5,286047000.5,P
1571726835.4,286047000.7,N
1571726855.2,286047001.1,N
1571726875.0,286047001.0,N
1571726875.9,286047001.0,N
1571726895.8,286047000.9,N
1571726915.6,286046998.5,N
1571726935.4,286047002.6,N
1571726955.2,286047002.7,N
1571726975.1,286047004.1,Y
1571726976.0,286047004.1,P
1571726995.8,286047002.4,N
1571727015.7,286047002.2,N
1571727035.5,286047001.4,N
1571727055.3,286047000.1,N
1571727075.1,286047000.3,N
1571727095.9,286046998.2,N
1571727115.7,286046998.4,N
1571727135.5,286047000.9,N
1571727155.4,286047000.6,N
1571727175.2,286047000.7,N
1571727195.0,286047000.3,N
1571727195.9,286047000.3,N
1571727215.8,286047002.2,N
1571727235.6,286047000.1,N
1571727255.4,286047000.5,N
1571727275.3,286047000.2,N
1571727295.1,286047001.7,N
1571727315.8,286047004.0,N
1571727335.7,286047002.9,N
1571727355.5,286047005.4,Y
1571727375.4,286047003.2,P
1571727395.2,286047005.3,P
1571727415.0,286047002.9,N
1571727415.9,286047002.9,N
1571727435.8,286047005.9,Y
1571727455.6,286047001.2,P
1571727475.4,286046997.2,P
1571727495.3,286046998.4,N
1571727515.1,286047000.8,N
1571727535.8,286046999.0,N
1571727555.7,286047000.7,N
1571727575.5,286046998.5,N
1571727625.4,286047001.0,E
